Regional Weather Roundup
Issued by NWS Albany, NY

Home | Current Version | Previous Version | Text Only | Print | Product List | Glossary On
Versions: 1 2 3 4 5 6 7 8 9 10 11 12 13 14 15 16 17 18 19 20 21 22 23 24 25 26 27 28 29 30 31 32 33 34 35 36 37 38 39 40 41 42 43 44 45 46 47 48 49 50
000
ASUS41 KALY 251310
RWRALY

NEW YORK STATE HOURLY WEATHER ROUNDUP
NATIONAL WEATHER SERVICE ALBANY NY
800 AM EST SUN JAN 25 2015

NOTE: "FAIR" INDICATES FEW OR NO CLOUDS BELOW 12,000 FEET WITH NO
SIGNIFICANT WEATHER AND/OR NO OBSTRUCTIONS TO VISIBILITY.

NYZ032-033-038>043-046>054-057>066-NYZ062>081-251400-
EAST


CITY           SKY/WX    TMP DP  RH WIND       PRES   REMARKS
ALBANY         MOCLDY    32  17  54 NW15G30   29.62R WCI  22
GLENS FALLS    FLURRIES  30  16  56 NW18      29.59R WCI  18
POUGHKEEPSIE   MOCLDY    35  26  69 SW8       29.61R WCI  29
NEWBURGH       MOCLDY    34  27  75 MISG      29.62R
MONTGOMERY     CLOUDY    36  24  62 W8        29.62R WCI  30
WHITE PLAINS   PTCLDY    34  25  69 VRB6      29.64R WCI  29
ISLIP          MOCLDY    34  26  72 W14       29.66R WCI  25
NEW YORK CITY  MOCLDY    36  26  67 SW13G22   29.69R WCI  27
CENTRAL PARK   CLOUDY    36  25  64 SW8G26    29.70R WCI  30
$$

NYZ005>009-017-018-044>046-055-056-251400-
CENTRAL


CITY           SKY/WX    TMP DP  RH WIND       PRES   REMARKS
FULTON         MOCLDY    18   9  68 N14G21    29.80R WCI   4
SYRACUSE       FLURRIES  18  11  74 NW18      29.78R WCI   2
ROME           CLOUDY    21  12  68 NW21G28   29.73R WCI   5
ELMIRA         PTCLDY    28  16  60 NW10G20   29.73R WCI  19
BINGHAMTON     MOCLDY    23  14  68 NW18G30   29.65R WCI   9
MONTICELLO     MOCLDY    28  19  69 NW18G29   29.60R WCI  16
$$

NYZ026>034-041>043-251400-
NORTH


CITY           SKY/WX    TMP DP  RH WIND       PRES   REMARKS
WATERTOWN      FAIR      11   1  64 N7        29.81R WCI   0
FORT DRUM      NOT AVBL
MASSENA        PTCLDY     6  -3  66 W8        29.79R WCI  -7
SARANAC LAKE   CLOUDY     3  -1  83 VRB6G20   29.58R FOG     WCI  -8
PLATTSBURGH    PTCLDY    15   5  64 NW8G22    29.66R WCI   4
$$

NYZ001>004-010>016-019>021-251400-
WEST


CITY           SKY/WX    TMP DP  RH WIND       PRES   REMARKS
NIAGARA FALLS  MOCLDY    17  11  77 N12       29.84R WCI   4
BUFFALO        PTCLDY    17  10  74 N13       29.83R WCI   4
DUNKIRK        CLOUDY    21  14  74 N12       29.84R WCI   9
JAMESTOWN      CLOUDY    21  19  93 NW9       29.73S WCI  11
WELLSVILLE     CLOUDY    23  17  78 NW15G23   29.69R WCI  10
ROCHESTER      MOCLDY    19  11  70 NW8       29.82R WCI   9
PENN YAN       PTCLDY    20  10  65 NW12      29.77R WCI   8
$$

             KEY
       WCI = WIND CHILL INDEX
       VSB = VISIBILITY
       HX  = HEAT INDEX
$$



USA.gov is the U.S. government's official web portal to all federal, state and local government web resources and services.